Weather History for Truckee-Tahoe, CA

Change the Weather History Date:

Friday, February 22, 2013

  Actual Average Record
Temperature  
Mean Temperature 28 °F -  
Max Temperature 44 °F 43 °F 62 °F (1988)
Min Temperature 12 °F 18 °F -4 °F (2011)
Degree Days  
Heating Degree Days 37    
Moisture  
Dew Point 19 °F    
Average Humidity 69    
Maximum Humidity 86    
Minimum Humidity 29    
Precipitation  
Precipitation 0.00 in - - ()
Snow  
Snow 0.00 in - - ()
Snow Depth 2.00 in    
Sea Level Pressure  
Sea Level Pressure 30.15 in    
Wind  
Wind Speed 3 mph (WSW)    
Max Wind Speed 17 mph    
Max Gust Speed 17 mph    
Visibility 10 miles    
Events      
Averages and records for this station are not official NWS values.
T = Trace of Precipitation, MM = Missing Value Source: NWS Daily Summary

Daily Weather History Graph

Daily Weather History Graph

Search for Another Location

Airport:

Trip Planner

Search our weather history database for the weather conditions in past years. The results will help you decide how hot, cold, wet, or windy it might be!

Date:

Astronomy

Feb. 22, 2013 Rise Set
Actual Time 6:42 AM PST 5:45 PM PST
Civil Twilight 6:15 AM PST 6:12 PM PST
Nautical Twilight 5:44 AM PST 6:44 PM PST
Astronomical Twilight 5:13 AM PST 7:15 PM PST
Moon 3:02 PM PST (2/22) 4:30 AM PST (2/22)
Length of Visible Light 11h 57m
Length of Day
11h 02m
Waxing Gibbous, 91% of the Moon is Illuminated
Feb 22
Waxing Gibbous
Feb 25
Full
Mar 4
Last Quarter
Mar 11
New
Mar 19
First Quarter

Hourly Weather History & Observations

Time (PST) Temp. Windchill Dew Point Humidity Pressure Visibility Wind Dir Wind Speed Gust Speed Precip Events Conditions
12:15 AM 17.6 °F - 12.2 °F 79% 30.11 in 10.0 mi Calm Calm - N/A   Clear
12:35 AM 19.4 °F 10.4 °F 12.2 °F 74% 30.12 in 10.0 mi NNW 6.9 mph - N/A   Clear
12:55 AM 17.6 °F - 12.2 °F 79% 30.13 in 10.0 mi Calm Calm - N/A   Clear
1:15 AM 17.6 °F 12.3 °F 12.2 °F 79% 30.13 in 10.0 mi WSW 3.5 mph - N/A   Clear
1:35 AM 19.4 °F - 12.2 °F 74% 30.14 in 10.0 mi Calm Calm - N/A   Clear
1:55 AM 17.6 °F 12.3 °F 12.2 °F 79% 30.14 in 10.0 mi ESE 3.5 mph - N/A   Clear
2:15 AM 17.6 °F - 12.2 °F 79% 30.15 in 10.0 mi Calm Calm - N/A   Clear
2:35 AM 17.6 °F - 12.2 °F 79% 30.15 in 10.0 mi Calm Calm - N/A   Clear
2:55 AM 17.6 °F 12.3 °F 12.2 °F 79% 30.15 in 10.0 mi SSE 3.5 mph - N/A   Clear
3:15 AM 15.8 °F - 12.2 °F 86% 30.14 in 10.0 mi Calm Calm - N/A   Clear
3:35 AM 15.8 °F - 12.2 °F 86% 30.13 in 10.0 mi Calm Calm - N/A   Clear
3:55 AM 17.6 °F - 14.0 °F 86% 30.13 in 10.0 mi Calm Calm - N/A   Clear
4:15 AM 15.8 °F 10.2 °F 12.2 °F 86% 30.13 in 10.0 mi East 3.5 mph - N/A   Clear
4:35 AM 15.8 °F 10.2 °F 10.4 °F 79% 30.15 in 10.0 mi East 3.5 mph - N/A   Clear
4:55 AM 14.0 °F - 10.4 °F 86% 30.15 in 10.0 mi Calm Calm - N/A   Clear
5:15 AM 15.8 °F - 12.2 °F 86% 30.17 in 10.0 mi Calm Calm - N/A   Clear
5:35 AM 12.2 °F 2.9 °F 8.6 °F 85% 30.17 in 10.0 mi South 5.8 mph - N/A   Clear
6:45 AM 12.2 °F - 8.6 °F 85% 30.18 in 10.0 mi Calm Calm - N/A   Partly Cloudy
7:55 AM 17.6 °F - 14.0 °F 86% 30.21 in 10.0 mi Calm Calm - N/A   Clear
8:55 AM 23.0 °F - 15.8 °F 74% 30.22 in 10.0 mi Calm Calm - N/A   Clear
9:45 AM 26.6 °F - 15.8 °F 64% 30.21 in 10.0 mi Calm Calm - N/A   Clear
10:45 AM 32.0 °F - 17.6 °F 55% 30.21 in 10.0 mi Calm Calm - N/A   Clear
10:55 AM 32.0 °F - 17.6 °F 55% 30.21 in 10.0 mi Calm Calm - N/A   Clear
11:45 AM 37.4 °F - 15.8 °F 41% 30.20 in 10.0 mi Calm Calm - N/A   Clear
12:55 PM 41.0 °F 39.0 °F 14.0 °F 33% 30.17 in 10.0 mi SW 3.5 mph - N/A   Partly Cloudy
2:00 PM 42.8 °F 40.1 °F 12.2 °F 29% 30.14 in 10.0 mi SE 4.6 mph - N/A   Mostly Cloudy
3:55 PM 44.6 °F 39.7 °F 24.8 °F 46% 30.13 in 10.0 mi West 9.2 mph - N/A   Scattered Clouds
4:50 PM 41.0 °F 32.5 °F 26.6 °F 57% 30.14 in 10.0 mi West 17.3 mph - N/A   Mostly Cloudy
4:55 PM 41.0 °F 33.9 °F 26.6 °F 57% 30.14 in 10.0 mi West 12.7 mph 17.3 mph N/A   Clear
5:15 PM 39.2 °F 33.0 °F 24.8 °F 56% 30.14 in 10.0 mi West 9.2 mph - N/A   Clear
5:35 PM 39.2 °F 35.0 °F 24.8 °F 56% 30.13 in 10.0 mi WSW 5.8 mph - N/A   Clear
5:55 PM 37.4 °F 31.4 °F 23.0 °F 56% 30.13 in 10.0 mi West 8.1 mph - N/A   Clear
6:15 PM 37.4 °F 32.1 °F 24.8 °F 60% 30.15 in 10.0 mi NNW 6.9 mph - N/A   Clear
6:35 PM 37.4 °F 32.8 °F 24.8 °F 60% 30.14 in 10.0 mi NNW 5.8 mph - N/A   Clear
6:55 PM 35.6 °F 29.9 °F 24.8 °F 65% 30.15 in 10.0 mi North 6.9 mph - N/A   Clear
7:15 PM 35.6 °F 32.8 °F 24.8 °F 65% 30.15 in 10.0 mi NW 3.5 mph - N/A   Clear
7:35 PM 35.6 °F 29.2 °F 24.8 °F 65% 30.16 in 10.0 mi NNW 8.1 mph - N/A   Partly Cloudy
7:55 PM 35.6 °F - 24.8 °F 65% 30.16 in 10.0 mi Calm Calm - N/A   Partly Cloudy
8:15 PM 35.6 °F 29.9 °F 24.8 °F 65% 30.15 in 10.0 mi WNW 6.9 mph - N/A   Mostly Cloudy
8:35 PM 35.6 °F 32.8 °F 24.8 °F 65% 30.16 in 10.0 mi NNW 3.5 mph - N/A   Overcast
8:55 PM 32.0 °F 26.4 °F 24.8 °F 75% 30.12 in 10.0 mi South 5.8 mph - N/A   Scattered Clouds
9:15 PM 32.0 °F 26.4 °F 24.8 °F 75% 30.13 in 10.0 mi WNW 5.8 mph - N/A   Clear
9:35 PM 35.6 °F 29.2 °F 24.8 °F 65% 30.14 in 10.0 mi WNW 8.1 mph - N/A   Mostly Cloudy
9:55 PM 35.6 °F 32.8 °F 24.8 °F 65% 30.15 in 10.0 mi SSE 3.5 mph - N/A   Mostly Cloudy
10:15 PM 32.0 °F 25.6 °F 24.8 °F 75% 30.13 in 10.0 mi SSE 6.9 mph - N/A   Scattered Clouds
10:35 PM 33.8 °F 27.7 °F 23.0 °F 65% 30.12 in 10.0 mi South 6.9 mph - N/A   Scattered Clouds
10:55 PM 35.6 °F 32.8 °F 23.0 °F 60% 30.12 in 10.0 mi SW 3.5 mph - N/A   Scattered Clouds
11:15 PM 33.8 °F 28.6 °F 24.8 °F 70% 30.11 in 10.0 mi ENE 5.8 mph - N/A   Overcast
11:35 PM 33.8 °F 30.8 °F 24.8 °F 70% 30.11 in 10.0 mi SE 3.5 mph - N/A   Overcast
11:55 PM 35.6 °F 31.7 °F 24.8 °F 65% 30.09 in 10.0 mi South 4.6 mph - N/A   Overcast